Back to catalog

SL-16 DEB

AliveLEO
NORAD 22444·DEBRIS·🇷🇺 Russia

Launched Dec 25, 1992 from Baikonur Cosmodrome

Loading…

Next Passes (next 24 hours)

TLE

FreshSource: Space-Track

Epoch: Sep 14, 2026, 12:41 UTC

1 22444U 92093EM  26257.52872132  .00000064  00000-0  61250-4 0  9999
2 22444  71.3187  86.8847 0076305 113.6779 278.2604 14.08336664724969

Track SL-16 DEB in real time with AllMySat

Download on the App Store